Location: Bougoudala
(13.2282°N, 4.9477°W)
Time: 01:00:34
(UTC+00:00)

Cosmos 1766 Rocket - Pass Details

Date: 29 January 2020
Orbit: 604 x 634 km, 82.5° (Epoch: 20 February)

Event Time Altitude Azimuth Distance (km) Brightness Sun altitude
Rises 19:19:53 0° 173° (S) 2,912 7.1 -15.0°
Reaches altitude 10° 19:22:11 10° 168° (SSE) 2,002 6.2 -15.6°
Maximum altitude 19:26:28 49° 93° (E) 810 3.7 -16.6°
Enters shadow 19:29:22 19° 25° (NNE) 1,480 5.1 -17.2°
